Location: Unspecified
(41.1850°N, 73.2650°W)
Time: 17:38:57
(UTC+00:00)

GEOS 3 Rocket - Pass Details

Date: 14 December 2025
Orbit: 769 x 844 km, 115.0° (Epoch: 15 January)

Event Time Altitude Azimuth Distance (km) Brightness Sun altitude
Exits shadow 21:57:02 - 39° (NE) 2,981 6.0 -6.2°
Reaches altitude 10° 21:58:20 10° 41° (NE) 2,468 5.6 -6.4°
Maximum altitude 22:03:41 65° 123° (ESE) 923 3.8 -7.3°
Drops below altitude 10° 22:09:00 10° 206° (SSW) 2,449 6.9 -8.2°
Sets 22:11:19 0° 209° (SSW) 3,374 7.8 -8.6°
